星链-4748 (STARLINK-4748 )

导读

STARLINK-4748是美国于2022年9月19日发射的星链低轨互联网卫星,隶属于SpaceX星链星座。星链项目旨在构建覆盖全球的卫星互联网系统,该卫星承担为全球偏远地区、海洋、空中等场景提供宽带互联网接入服务,该卫星在轨运行中为星链网络的全球覆盖能力提供支撑。

基本信息
目录编号:
53823
目录名称:
STARLINK-4748
国际标识:
2022-114F
轨道中心:
EARTH
卫星名称:
星链-4748
卫星全名:
星链-4748 (STARLINK-4748 )
卫星状态:
在轨 (已飞行1367 天)
发射日期:
2022-09-19 UTC
国别 :
美国 (US)
星等 :
--
轨道信息
数据来源 国际轨道数据 AOE轨道数据
星历时间 2026-06-17T01:26:56+0800
15小时前
查看轨道信息
2026-06-16T07:00:00+0800
1天前
查看轨道信息
半长轴 6917.907km 6917.884km
偏心率 0.0001237 0.0001436
轨道倾角 53.161° 53.158°
近地点辐角 86.140° 62.634°
升交点赤经 174.416° 177.874°
平近点角 273.973° 79.781°
近地点 538.914km 538.753km
远地点 540.626km 540.741km
周期 95.438分钟 95.438分钟
每日圈数 15.088313 15.088389
详细信息
固有亮度:
5
最大亮度:
2.5
卫星平台:
Starlink v1.5
覆盖范围:
全球
运营商:
太空探索技术公司
运营商所在国:
美国
制造商(研发单位):
太空探索技术公司
制造商所在国:
美国
使用方式:
暂无
卫星简介
星链(Starlink)计划是由太空探索技术公司(SpaceX)提出的一个巨型低轨卫星互联网星座项目,计划在2019年至2024年间在太空搭建由约1.2万颗卫星组成的“星链”网络,其中1584颗将部署在地球上空550千米处的近地轨道,并从2020年开始工作。该卫星仍在工作。
2D轨道图
3D轨道图
轨道高度分析图
轨道倾角分析图
轨道综合分析图
查看轨道综合分析图